This demonstration page uses our WeatherBlox Daily Observations layout. Learn more.

Left ArrowRight Arrow

41.86663, -103.66717

Hourly Observations for August 12, 2021

Temp ( °F °C ) Dew Point ( °F °C ) Humidity (%) Winds ( mph kmh ) Pressure ( in mb ) Visibility ( mi km ) Precip ( " mm )
12:53 am 00:53 Clear 66 18.9 49 9.4 54 54 E 6 9 29.82 1010 10 16 N/A
1:53 am 01:53 Clear 64 17.8 49 9.4 58 58 W 7 11 29.84 1011 10 16 N/A
2:53 am 02:53 Clear 61 16.1 49 9.4 65 65 WNW 3 6 29.85 1011 9 14 N/A
3:53 am 03:53 Clear 59 15 49 9.4 69 69 WSW 3 6 29.87 1012 9 14 N/A
4:53 am 04:53 Clear 60 15.6 48 8.9 65 65 S 3 6 29.89 1012 9 14 N/A
5:53 am 05:53 Clear 60 15.6 47 8.3 62 62 N N/A 29.93 1013 9 14 N/A
6:53 am 06:53 Sunny 68 20 45 7.2 44 44 NNE 3 6 29.98 1015 10 16 N/A
7:53 am 07:53 Sunny 70 21.1 45 7.2 41 41 NE 12 19 30.03 1017 10 16 N/A
8:53 am 08:53 Sunny 74 23.3 45 7.2 36 36 ENE 12 19 30.06 1018 10 16 N/A
9:53 am 09:53 Sunny 78 25.6 43 6.1 29 29 NE 15 24 30.08 1019 10 16 N/A
10:53 am 10:53 Sunny 81 27.2 44 6.7 27 27 ENE 14 22 30.09 1019 10 16 N/A
11:53 am 11:53 Sunny 82 27.8 44 6.7 26 26 ENE 15 24 30.08 1019 10 16 N/A
12:53 pm 12:53 Sunny 84 28.9 45 7.2 25 25 E 13 20 30.07 1018 10 16 N/A
1:53 pm 13:53 Sunny 85 29.4 44 6.7 24 24 ENE 10 17 30.06 1018 10 16 N/A
2:53 pm 14:53 Sunny 86 30 45 7.2 24 24 NE 13 20 30.06 1018 10 16 N/A
3:53 pm 15:53 Sunny 86 30 43 6.1 22 22 E 7 11 30.05 1018 10 16 N/A
4:53 pm 16:53 Sunny 86 30 45 7.2 24 24 E 9 15 30.03 1017 10 16 N/A
5:53 pm 17:53 Sunny 86 30 44 6.7 23 23 ENE 9 15 30.02 1017 10 16 N/A
6:53 pm 18:53 Sunny 82 27.8 47 8.3 29 29 E 7 11 30.01 1016 10 16 N/A
7:53 pm 19:53 Sunny 73 22.8 48 8.9 41 41 ENE 9 15 30.03 1017 10 16 N/A
8:53 pm 20:53 Clear 70 21.1 45 7.2 41 41 E 8 13 30.07 1018 10 16 N/A
9:53 pm 21:53 Clear 66 18.9 46 7.8 49 49 ESE 8 13 30.10 1019 10 16 N/A
10:53 pm 22:53 Clear 64 17.8 46 7.8 52 52 E 7 11 30.10 1019 10 16 N/A
11:53 pm 23:53 Clear 62 16.7 47 8.3 58 58 E 8 13 30.11 1020 10 16 N/A

Powered by AerisWeather